Pella, IA

11:57 PM CDT on March 23, 2017 (GMT -0500)
Pella Municipal

Weather History for KPEA - April, 2013

Change the Weather History Date:

Monday, April 8, 2013

  Actual Average (KOXV) Record (KOXV)
Temperature  
Mean Temperature 62 °F -  
Max Temperature 74 °F 58 °F 84 °F (2001)
Min Temperature 50 °F 38 °F 19 °F (1972)
Degree Days  
Heating Degree Days 3    
Growing Degree Days 12 (Base 50)    
Moisture  
Dew Point 53 °F    
Average Humidity 73    
Maximum Humidity 98    
Minimum Humidity 47    
Precipitation  
Precipitation 0.15 in - - ()
Sea Level Pressure  
Sea Level Pressure 29.73 in    
Wind  
Wind Speed 6 mph (South)    
Max Wind Speed 12 mph    
Max Gust Speed 20 mph    
Visibility 8 miles    
Events Fog , Rain    
Averages and records for this station are not official NWS values.
T = Trace of Precipitation, MM = Missing Value Source: NWS Daily Summary

Daily Weather History Graph

Daily Weather History Graph

Search for Another Location

Airport or City:

Trip Planner

Search our weather history database for the weather conditions in past years. The results will help you decide how hot, cold, wet, or windy it might be!

Date:

Astronomy

Apr. 08, 2013 Rise Set
Actual Time 6:42 AM CDT 7:44 PM CDT
Civil Twilight 6:14 AM CDT 8:13 PM CDT
Nautical Twilight 5:40 AM CDT 8:46 PM CDT
Astronomical Twilight 5:05 AM CDT 9:22 PM CDT
Moon 5:34 AM CDT (4/8) 6:19 PM CDT (4/8)
Length of Visible Light 13h 58m
Length of Day
13h 01m
Waning Crescent, 3% of the Moon is Illuminated
Apr 8
Waning Crescent
Apr 10
New
Apr 18
First Quarter
Apr 25
Full
May 2
Last Quarter

Hourly Weather History & Observations

Time (CDT) Temp. Dew Point Humidity Pressure Visibility Wind Dir Wind Speed Gust Speed Precip Events Conditions
12:15 AM 58.1 °F 42.8 °F 57% 29.70 in 10.0 mi SSE 9.2 mph 16.1 mph N/A Rain Light Rain
12:35 AM 57.6 °F 43.3 °F 59% 29.70 in 10.0 mi South 10.4 mph - N/A   Light Drizzle
12:55 AM 57.9 °F 43.7 °F 59% 29.69 in 10.0 mi South 8.1 mph - N/A Rain Light Rain
1:15 AM 58.5 °F 45.7 °F 62% 29.70 in 10.0 mi SSW 8.1 mph - N/A   Mostly Cloudy
1:35 AM 59.0 °F 50.0 °F 72% 29.70 in 10.0 mi SW 11.5 mph 16.1 mph N/A Rain Light Rain
1:55 AM 57.4 °F 51.8 °F 82% 29.69 in 10.0 mi SSW 9.2 mph - N/A Rain Rain
2:15 AM 56.7 °F 53.6 °F 89% 29.68 in 7.0 mi SSW 9.2 mph - 0.02 in Rain Rain
2:35 AM 56.3 °F 53.8 °F 91% 29.66 in 7.0 mi South 5.8 mph - 0.04 in Rain Rain
2:55 AM 55.6 °F 53.8 °F 94% 29.64 in 5.0 mi Calm Calm - 0.07 in Rain Rain
3:15 AM 54.9 °F 53.2 °F 94% 29.64 in 7.0 mi Calm Calm - N/A Rain Light Rain
3:35 AM 54.9 °F 53.6 °F 96% 29.64 in 5.0 mi Calm Calm - 0.01 in Rain Light Rain
3:55 AM 54.7 °F 53.6 °F 96% 29.64 in 4.0 mi NW 4.6 mph - 0.03 in Rain Rain
4:15 AM 54.9 °F 53.8 °F 96% 29.64 in 4.0 mi NW 4.6 mph - N/A Rain Light Rain
4:35 AM 54.5 °F 53.6 °F 97% 29.64 in 7.0 mi WNW 5.8 mph - 0.01 in Rain Rain
4:55 AM 54.5 °F 53.6 °F 97% 29.64 in 7.0 mi NNW 6.9 mph - 0.01 in   Drizzle
5:15 AM 54.0 °F 53.1 °F 97% 29.65 in 7.0 mi NW 8.1 mph - N/A   Overcast
5:35 AM 53.6 °F 52.5 °F 96% 29.65 in 10.0 mi NW 5.8 mph - N/A   Overcast
5:55 AM 52.7 °F 51.8 °F 97% 29.65 in 10.0 mi North 3.5 mph - N/A   Mostly Cloudy
6:15 AM 51.4 °F 50.4 °F 96% 29.66 in 1.0 mi Calm Calm - N/A   Mostly Cloudy
6:35 AM 50.5 °F 49.6 °F 97% 29.66 in 0.2 mi Calm Calm - N/A Fog Fog
6:55 AM 51.4 °F 50.5 °F 97% 29.68 in 0.2 mi South 3.5 mph - N/A Fog Fog
7:15 AM 50.9 °F 50.0 °F 97% 29.70 in 0.5 mi SSW 3.5 mph - N/A Fog Fog
7:35 AM 50.4 °F 49.6 °F 97% 29.71 in 0.2 mi South 4.6 mph - N/A Fog Fog
7:55 AM 52.5 °F 51.8 °F 97% 29.72 in 0.2 mi South 3.5 mph - N/A Fog Fog
8:15 AM 53.1 °F 52.3 °F 97% 29.73 in 0.2 mi South 4.6 mph - N/A Fog Fog
8:35 AM 54.7 °F 54.0 °F 97% 29.73 in 5.0 mi SSW 4.6 mph - N/A   Scattered Clouds
8:55 AM 55.8 °F 55.2 °F 98% 29.73 in 10.0 mi South 3.5 mph - N/A   Clear
9:15 AM 57.6 °F 55.9 °F 94% 29.73 in 10.0 mi SSW 4.6 mph - N/A   Clear
9:35 AM 59.5 °F 56.1 °F 88% 29.74 in 10.0 mi WSW 4.6 mph - N/A   Clear
9:55 AM 60.8 °F 53.1 °F 76% 29.74 in 10.0 mi West 5.8 mph - N/A   Clear
10:15 AM 62.2 °F 51.6 °F 68% 29.74 in 10.0 mi WSW 5.8 mph - N/A   Clear
10:35 AM 63.7 °F 50.5 °F 62% 29.74 in 10.0 mi SW 4.6 mph - N/A   Clear
10:55 AM 64.8 °F 51.4 °F 62% 29.75 in 10.0 mi SW 4.6 mph - N/A   Clear
11:15 AM 65.3 °F 51.6 °F 61% 29.75 in 10.0 mi WSW 6.9 mph - N/A   Clear
11:35 AM 65.3 °F 52.9 °F 64% 29.76 in 10.0 mi SW 8.1 mph - N/A   Clear
11:55 AM 65.3 °F 52.9 °F 64% 29.75 in 10.0 mi SW 9.2 mph - N/A   Scattered Clouds
12:15 PM 66.0 °F 53.1 °F 63% 29.75 in 10.0 mi SW 8.1 mph - N/A   Scattered Clouds
12:35 PM 66.7 °F 52.5 °F 60% 29.75 in 10.0 mi West 8.1 mph - N/A   Clear
12:55 PM 68.2 °F 53.4 °F 59% 29.75 in 10.0 mi South 6.9 mph - N/A   Clear
1:15 PM 69.1 °F 53.6 °F 58% 29.75 in 10.0 mi WSW 8.1 mph - N/A   Clear
1:35 PM 68.9 °F 53.4 °F 58% 29.74 in 10.0 mi WSW 6.9 mph - N/A   Clear
1:55 PM 70.2 °F 53.2 °F 55% 29.74 in 10.0 mi WSW 5.8 mph - N/A   Clear
2:15 PM 71.1 °F 50.9 °F 49% 29.75 in 10.0 mi WSW 5.8 mph - N/A   Clear
2:35 PM 71.6 °F 51.4 °F 49% 29.74 in 10.0 mi Calm Calm - N/A   Clear
2:55 PM 73.0 °F 51.8 °F 47% 29.74 in 10.0 mi SW 4.6 mph - N/A   Clear
3:15 PM 73.4 °F 52.7 °F 48% 29.74 in 10.0 mi SE 9.2 mph - N/A   Clear
3:35 PM 73.6 °F 52.5 °F 48% 29.74 in 10.0 mi SSE 6.9 mph 10.4 mph N/A   Clear
3:55 PM 74.8 °F 53.2 °F 47% 29.74 in 10.0 mi South 9.2 mph - N/A   Clear
4:15 PM 74.5 °F 53.2 °F 47% 29.74 in 10.0 mi SSW 10.4 mph - N/A   Clear
4:35 PM 74.5 °F 53.2 °F 47% 29.74 in 10.0 mi SSW 8.1 mph 16.1 mph N/A   Scattered Clouds
4:55 PM 73.6 °F 53.1 °F 49% 29.73 in 10.0 mi South 9.2 mph 19.6 mph N/A   Scattered Clouds
5:15 PM 73.2 °F 53.1 °F 49% 29.74 in 10.0 mi South 8.1 mph - N/A   Clear
5:35 PM 72.7 °F 52.3 °F 49% 29.74 in 10.0 mi South 9.2 mph - N/A   Clear
5:55 PM 72.1 °F 52.7 °F 50% 29.74 in 10.0 mi South 8.1 mph - N/A   Clear
6:15 PM 71.8 °F 53.1 °F 52% 29.74 in 10.0 mi SSE 5.8 mph - N/A   Clear
6:35 PM 71.1 °F 53.4 °F 54% 29.76 in 10.0 mi SSE 4.6 mph - N/A   Clear
6:55 PM 70.2 °F 53.6 °F 56% 29.76 in 10.0 mi SE 3.5 mph - N/A   Clear
7:15 PM 69.4 °F 53.8 °F 57% 29.77 in 10.0 mi ESE 3.5 mph - N/A   Clear
7:35 PM 68.2 °F 53.8 °F 60% 29.77 in 10.0 mi Calm Calm - N/A   Clear
7:55 PM 66.9 °F 54.0 °F 63% 29.77 in 10.0 mi ESE 4.6 mph - N/A   Clear
8:15 PM 65.7 °F 54.0 °F 66% 29.79 in 10.0 mi SE 5.8 mph - N/A   Scattered Clouds
8:35 PM 65.3 °F 54.1 °F 67% 29.79 in 10.0 mi ESE 4.6 mph - N/A   Scattered Clouds
8:55 PM 65.1 °F 55.0 °F 70% 29.80 in 10.0 mi ESE 3.5 mph - N/A   Clear
9:15 PM 64.6 °F 55.4 °F 72% 29.81 in 10.0 mi East 4.6 mph - N/A   Clear
9:35 PM 64.4 °F 56.1 °F 74% 29.82 in 10.0 mi ESE 6.9 mph - N/A   Scattered Clouds
9:55 PM 63.7 °F 55.9 °F 76% 29.82 in 10.0 mi ESE 3.5 mph - N/A   Scattered Clouds
10:15 PM 63.9 °F 56.5 °F 77% 29.82 in 10.0 mi ESE 5.8 mph - N/A   Clear
10:35 PM 63.5 °F 56.5 °F 78% 29.82 in 10.0 mi ESE 4.6 mph - N/A   Scattered Clouds
10:55 PM 63.0 °F 56.5 °F 79% 29.82 in 10.0 mi ESE 6.9 mph - N/A   Mostly Cloudy
11:15 PM 62.4 °F 57.6 °F 84% 29.81 in 7.0 mi ESE 6.9 mph - 0.01 in Rain Light Rain
11:35 PM 63.3 °F 59.2 °F 86% 29.80 in 7.0 mi East 5.8 mph - 0.02 in Rain Heavy Rain
11:55 PM 62.8 °F 59.4 °F 89% 29.79 in 7.0 mi East 3.5 mph - 0.04 in   Overcast